DW5656 Weather Reports


time (UTC)temp
F
wind
direction
speed
knots
gust
knots
rain 1hr
in
rain 24hr
in
rain mn
in
humidity
%
barometer
mb
20260906024550 82 355 1.7 4.3 0.00 0.04 0.00 50 1018.2
20260906023629 82 24 1.7 3.5 0.00 0.04 0.00 49 1018.3
20260906022749 82 8 1.7 3.5 0.00 0.04 0.00 49 1018.3
20260906021828 82 346 1.7 3.5 0.00 0.04 0.00 50 1018.3
20260906020928 82 319 0.9 3.5 0.00 0.04 0.00 51 1018.3
20260906020049 82 298 0.9 3.5 0.00 0.04 0.00 54 1018.4
20260906015128 82 254 0.0 1.7 0.00 0.04 0.00 59 1018.3
20260906014249 81 254 0.0 0.9 0.00 0.04 0.00 61 1018.3
20260906013328 81 0 0.0 0.0 0.00 0.04 0.00 62 1018.4
20260906012428 81 254 0.0 0.9 0.00 0.04 0.00 61 1018.4
20260906011549 81 254 0.9 1.7 0.00 0.04 0.00 62 1018.4
20260906010628 81 254 0.9 2.6 0.00 0.04 0.00 61 1018.5
20260906005728 82 254 0.9 0.9 0.00 0.04 0.00 60 1018.6
20260906004828 82 255 2.6 3.5 0.00 0.04 0.00 59 1018.5
20260906003949 84 284 0.9 5.2 0.00 0.04 0.00 56 1018.5
20260906003028 84 341 0.0 0.9 0.00 0.04 0.00 47 1018.4
20260906002128 84 341 0.0 1.7 0.00 0.04 0.00 47 1018.2
20260906001249 85 341 0.9 1.7 0.00 0.04 0.00 46 1018.4
20260906000349 85 341 1.7 2.6 0.00 0.04 0.00 47 1018.5
20260905235449 85 349 1.7 3.5 0.00 0.04 0.00 46 1018.4
20260905234528 85 358 0.9 3.5 0.00 0.04 0.00 47 1018.4
20260905233628 86 350 0.9 2.6 0.00 0.04 0.00 47 1018.5
20260905232728 86 354 1.7 2.6 0.00 0.04 0.00 47 1018.5
20260905231828 86 355 1.7 2.6 0.00 0.04 0.00 46 1018.5
20260905230949 86 354 0.9 2.6 0.00 0.04 0.00 46 1018.4
20260905230028 86 350 0.9 2.6 0.00 0.04 0.00 47 1018.5
20260905225128 86 350 0.9 1.7 0.00 0.04 0.00 48 1018.4
20260905224228 86 350 0.9 2.6 0.00 0.04 0.00 48 1018.3
20260905223328 86 351 1.7 2.6 0.00 0.04 0.00 48 1018.3
20260905222428 86 348 1.7 3.5 0.00 0.04 0.00 48 1018.3
20260905221528 87 359 1.7 3.5 0.00 0.04 0.00 48 1018.2
20260905220628 87 353 1.7 3.5 0.00 0.04 0.00 48 1018.2
20260905215728 87 17 1.7 2.6 0.00 0.04 0.04 48 1018.1
20260905214828 87 18 2.6 6.1 0.00 0.04 0.04 49 1018.0
20260905213928 88 2 2.6 4.3 0.00 0.04 0.04 48 1018.0
20260905213049 88 360 2.6 4.3 0.00 0.04 0.04 48 1018.0
20260905212149 88 5 2.6 4.3 0.00 0.04 0.04 48 1018.0
20260905211228 89 359 2.6 4.3 0.00 0.04 0.04 48 1017.9
20260905210349 89 19 2.6 6.1 0.00 0.04 0.04 47 1017.7
20260905205427 90 358 2.6 4.3 0.00 0.04 0.04 47 1017.7
20260905204527 90 349 2.6 4.3 0.00 0.04 0.04 46 1017.6
20260905203648 90 358 2.6 4.3 0.00 0.04 0.04 47 1017.4
20260905202727 91 11 1.7 4.3 0.00 0.04 0.04 46 1017.2
20260905201827 92 356 1.7 3.5 0.00 0.04 0.04 45 1017.3
20260905200927 93 347 1.7 3.5 0.00 0.04 0.04 43 1017.3
20260905200027 93 359 1.7 3.5 0.00 0.04 0.04 41 1017.2
20260905195127 93 33 2.6 4.3 0.00 0.04 0.04 40 1017.0
20260905194227 93 44 2.6 4.3 0.00 0.04 0.04 40 1016.8
20260905193327 93 54 3.5 6.1 0.00 0.04 0.04 40 1016.7
20260905192428 94 34 3.5 5.2 0.00 0.04 0.04 39 1016.7
20260905191527 94 43 2.6 6.1 0.00 0.04 0.04 39 1016.6
20260905190648 94 38 2.6 6.1 0.00 0.04 0.04 40 1016.6
20260905185748 94 38 2.6 4.3 0.00 0.04 0.04 41 1016.7
20260905184827 94 27 2.6 6.1 0.00 0.04 0.04 42 1016.5
20260905183927 94 13 2.6 4.3 0.00 0.04 0.04 42 1016.5
20260905183048 95 336 2.6 4.3 0.00 0.04 0.04 42 1016.6
20260905182127 96 352 2.6 4.3 0.00 0.04 0.04 40 1016.5
20260905181248 96 3 2.6 6.1 0.00 0.04 0.04 38 1016.6
20260905180327 96 20 3.5 5.2 0.00 0.04 0.04 38 1016.6
20260905175427 96 32 3.5 6.1 0.00 0.04 0.04 38 1016.6
20260905174527 96 37 3.5 7.0 0.00 0.04 0.04 38 1016.6
20260905173627 96 24 2.6 7.0 0.00 0.04 0.04 39 1016.5
20260905172727 96 50 2.6 7.8 0.00 0.04 0.04 40 1016.6
20260905171827 96 33 2.6 7.8 0.00 0.04 0.04 40 1016.5
20260905170927 95 10 3.5 7.0 0.00 0.04 0.04 44 1016.4
20260905170027 95 351 2.6 6.1 0.00 0.04 0.04 45 1016.5
20260905165148 95 353 2.6 6.1 0.00 0.04 0.04 45 1016.6
20260905164227 95 28 2.6 7.0 0.00 0.04 0.04 43 1016.6
20260905163328 95 3 1.7 4.3 0.00 0.04 0.04 42 1016.5
20260905162427 95 51 1.7 4.3 0.00 0.04 0.04 42 1016.3
20260905161548 95 66 1.7 4.3 0.00 0.04 0.04 42 1016.5
20260905160627 95 47 1.7 4.3 0.00 0.04 0.04 42 1016.6
20260905155727 95 60 1.7 3.5 0.00 0.04 0.04 43 1016.7
20260905154827 95 79 0.9 3.5 0.00 0.04 0.04 43 1016.8
20260905153927 95 87 0.9 2.6 0.00 0.04 0.04 43 1016.8
20260905153027 95 87 1.7 3.5 0.00 0.04 0.04 43 1016.9
20260905152127 95 113 1.7 5.2 0.00 0.04 0.04 43 1017.3
20260905151248 95 139 0.9 3.5 0.00 0.04 0.04 43 1017.4
20260905150327 95 173 1.7 3.5 0.00 0.04 0.04 43 1017.4
20260905145427 95 177 1.7 3.5 0.00 0.04 0.04 43 1017.6
20260905144526 95 126 1.7 5.2 0.00 0.04 0.04 42 1017.7
20260905143626 95 140 1.7 5.2 0.00 0.04 0.04 42 1017.7
20260905142727 95 120 1.7 4.3 0.00 0.04 0.04 41 1017.8
20260905141826 95 112 0.9 7.0 0.00 0.04 0.04 41 1017.8
20260905140926 95 9 0.9 3.5 0.00 0.04 0.04 45 1017.9
20260905140026 94 47 1.7 2.6 0.00 0.04 0.04 47 1018.0
20260905135126 94 201 0.9 4.3 0.00 0.04 0.04 47 1018.0
20260905134226 94 274 0.9 5.2 0.00 0.04 0.04 48 1018.1
20260905133326 93 328 1.7 2.6 0.00 0.04 0.04 49 1018.4
20260905132426 92 329 1.7 4.3 0.00 0.04 0.04 50 1018.4
20260905131526 91 352 1.7 3.5 0.00 0.04 0.04 53 1018.2
20260905130626 90 11 1.7 3.5 0.00 0.04 0.04 54 1018.2
20260905125727 89 33 1.7 2.6 0.00 0.04 0.04 55 1018.4
20260905124826 89 76 0.9 2.6 0.00 0.04 0.04 57 1018.5
20260905123947 88 65 1.7 4.3 0.00 0.04 0.04 57 1018.5
20260905123026 88 76 3.5 7.0 0.00 0.04 0.04 58 1018.5
20260905122126 87 61 3.5 7.0 0.00 0.04 0.04 58 1018.5
20260905121226 87 58 3.5 8.7 0.00 0.04 0.04 59 1018.4
20260905120326 87 58 3.5 7.8 0.00 0.04 0.04 60 1018.4
20260905115426 86 37 2.6 7.0 0.00 0.04 0.04 61 1018.6
20260905114526 86 21 3.5 6.1 0.00 0.04 0.04 63 1018.8
20260905113626 86 1 2.6 5.2 0.00 0.04 0.04 62 1018.9
20260905112726 86 357 2.6 4.3 0.00 0.04 0.04 62 1019.2
20260905111826 87 4 1.7 4.3 0.00 0.04 0.04 62 1019.1
20260905110926 87 15 1.7 3.5 0.00 0.04 0.04 62 1019.1
20260905110026 87 347 1.7 4.3 0.00 0.04 0.04 61 1019.2
20260905105126 87 328 0.9 3.5 0.00 0.04 0.04 62 1019.2
20260905104226 86 292 0.9 2.6 0.00 0.04 0.04 62 1019.0
20260905103326 86 280 0.9 2.6 0.00 0.04 0.04 63 1019.2
20260905102447 86 250 0.9 2.6 0.00 0.04 0.04 64 1019.0
20260905101526 85 224 1.7 3.5 0.00 0.04 0.04 64 1019.0
20260905100647 85 205 1.7 3.5 0.00 0.04 0.04 63 1019.0
20260905095726 85 175 1.7 4.3 0.00 0.04 0.04 63 1018.8
20260905094847 85 125 1.7 5.2 0.00 0.04 0.04 63 1018.7
20260905093947 84 88 1.7 7.0 0.00 0.04 0.04 64 1018.6
20260905093026 84 36 0.9 3.5 0.00 0.04 0.04 64 1018.5
20260905092126 84 14 2.6 4.3 0.00 0.04 0.04 64 1018.4
20260905091226 84 30 2.6 5.2 0.00 0.04 0.04 64 1018.4
20260905090326 84 3 2.6 4.3 0.01 0.04 0.04 65 1018.3
20260905085425 83 354 2.6 4.3 0.03 0.04 0.04 65 1018.3
20260905084525 81 314 1.7 4.3 0.03 0.04 0.04 69 1018.1
20260905083625 81 339 1.7 5.2 0.03 0.04 0.04 70 1018.1
20260905082726 81 349 4.3 6.1 0.03 0.04 0.04 71 1018.0
20260905081825 82 54 4.3 8.7 0.03 0.04 0.04 67 1017.9
20260905080925 82 65 1.7 7.0 0.04 0.04 0.04 67 1018.4
20260905080025 83 115 1.7 3.5 0.02 0.02 0.02 64 1019.0
20260905075125 82 32 2.6 3.5 0.01 0.01 0.01 63 1018.8
20260905074225 82 33 2.6 4.3 0.01 0.01 0.01 64 1018.5
20260905073325 83 360 3.5 7.0 0.01 0.01 0.01 63 1018.4
20260905072425 85 352 1.7 6.1 0.01 0.01 0.01 61 1018.5
20260905071525 85 353 2.6 4.3 0.00 0.00 0.00 57 1018.4
20260905070626 85 352 3.5 7.0 0.00 0.00 0.00 57 1018.2
20260905065725 85 330 3.5 7.0 0.00 0.00 0.00 58 1018.2
20260905064825 84 333 2.6 7.8 0.00 0.00 0.00 59 1018.2
20260905063925 85 313 1.7 5.2 0.00 0.00 0.00 59 1018.0
20260905063025 84 304 1.7 3.5 0.00 0.00 0.00 60 1017.7
20260905062125 84 280 2.6 5.2 0.00 0.00 0.00 60 1017.5
20260905061225 84 269 3.5 8.7 0.00 0.00 0.00 61 1017.7
20260905060325 84 267 2.6 8.7 0.00 0.00 0.00 61 1017.6
20260905055425 84 279 4.3 7.0 0.00 0.00 0.00 63 1017.6
20260905054525 84 271 3.5 8.7 0.00 0.00 0.00 63 1017.6
20260905053625 84 273 0.9 8.7 0.00 0.00 0.00 64 1017.5
20260905052725 84 39 1.7 2.6 0.00 0.00 0.00 64 1016.6
20260905051846 84 49 1.7 4.3 0.00 0.00 0.00 64 1016.5
20260905050925 84 33 2.6 4.3 0.00 0.00 0.00 64 1016.5
20260905050025 84 25 1.7 5.2 0.00 0.00 0.00 64 1016.4
20260905045125 84 10 1.7 3.5 0.00 0.00 0.00 64 1016.4
20260905044225 85 44 2.6 5.2 0.00 0.00 0.00 63 1016.4
20260905043325 85 31 1.7 5.2 0.00 0.00 0.00 62 1016.1
20260905042425 85 37 1.7 2.6 0.00 0.00 0.00 63 1016.1
20260905041525 85 39 1.7 3.5 0.00 0.00 0.00 63 1016.1
20260905040625 85 65 3.5 5.2 0.00 0.00 0.00 63 1016.1
20260905035725 86 73 2.6 7.0 0.00 0.00 0.00 62 1016.0
20260905034825 86 69 2.6 5.2 0.00 0.00 0.00 61 1016.1
20260905033925 86 40 2.6 6.1 0.00 0.00 0.00 62 1015.9
20260905033046 86 38 1.7 4.3 0.00 0.00 0.00 62 1015.7
20260905032125 86 28 1.7 3.5 0.00 0.00 0.00 62 1015.8
20260905031225 86 21 1.7 4.3 0.00 0.00 0.00 62 1015.7
20260905030325 86 278 0.9 2.6 0.00 0.00 0.00 63 1015.9